Location: Berlise
(49.6641°N, 4.1077°E)
Time: 22:52:14
(UTC+00:00)

Cosmos 1346 Rocket - Pass Details

Date: 27 January 2021
Orbit: 532 x 546 km, 81.2° (Epoch: 01 March)

Event Time Altitude Azimuth Distance (km) Brightness Sun altitude
Exits shadow 05:53:58 14° 330° (NNW) 1,600 4.8 -14.3°
Maximum altitude 05:57:06 38° 265° (W) 850 3.3 -13.8°
Drops below altitude 10° 06:00:47 10° 198° (SSW) 1,809 5.4 -13.2°
Sets 06:03:03 0° 190° (S) 2,699 6.4 -12.9°
